Agenzia del porto Bunker Vibo
  Sponsor: GEONAV 

OBSERVATIONS
LATEST DOWNLOAD: 2019/01/22 09:12:42

STATION EGGW/036733
Tuesday, 22 January 2019, 07:50 UTC

pressure 1002 hPa
temperature 0 °C
dewpoint -1 °C
humidity 93%
wind W-9 knots
visibility Good
sky -
weather -

MAIN LOCATIONS

HOURLY DATA

HOTEL RESERVATION

WEATHER REPORT WEATHER REPORT

METEOMAR METEOMAR

WEATHER CHARTS WEATHER CHARTS

WEBCAM WEBCAM



 LUTON
COUNTRY
UNITED KINGDOM
     LAT
51.86 N
    LON
0.36 W
    ELEV
160 m
     REGION
-
     PROVINCE
-
     ZONE
-

LATEST 24 HOURS ( 48 OBSERVATIONS )
Observation time
UTC
temperature
humidity
%
pressure
hPa
  wind
knots
2019/01/22 07:500 931002W-9
2019/01/22 07:200 1001002WSW-8
2019/01/22 06:501 931002W-10
2019/01/22 06:201 931002W-10
2019/01/22 05:501 931002W-11
2019/01/22 05:202 931002W-12
2019/01/22 04:502 931002W-9
2019/01/22 04:203 861002W-9
2019/01/22 03:503 931003WNW-12
2019/01/22 03:204 931003W-11
2019/01/22 02:505 931003SSW-8
2019/01/22 02:205 931003SSW-9
2019/01/22 01:505 931004SSW-13
2019/01/22 01:204 1001005S-10
2019/01/22 00:504 1001006S-10
2019/01/22 00:204 931006S-11
2019/01/21 23:504 931007S-10
2019/01/21 23:204 931008S-9
2019/01/21 22:504 931009S-9
2019/01/21 22:203 931010S-10
2019/01/21 21:503 931011S-9
2019/01/21 21:203 861012S-8
2019/01/21 20:503 861012S-9
2019/01/21 20:202 861013S-7
2019/01/21 19:502 861013S-7
2019/01/21 19:203 801014S-7
2019/01/21 18:503 801015S-6
2019/01/21 17:503 801016SSW-8
2019/01/21 17:203 801017SSW-9
2019/01/21 16:503 801017SSW-9
2019/01/21 16:204 751018SSW-8
2019/01/21 15:504 751018SSW-7
2019/01/21 15:204 751018SSW-8
2019/01/21 14:504 751019SSW-8
2019/01/21 14:204 801019SSW-8
2019/01/21 13:504 801020SSW-6
2019/01/21 13:205 751020SSW-6
2019/01/21 12:504 861021S-4
2019/01/21 12:204 861021S-5
2019/01/21 11:504 861022S-4
2019/01/21 11:204 861022VAR-3
2019/01/21 10:503 931023VAR-3
2019/01/21 10:203 931023S-3
2019/01/21 09:502 931023SSW-3
2019/01/21 09:202 931023SW-4
2019/01/21 08:501 1001023SSW-3
2019/01/21 08:201 931023SSW-2
2019/01/21 07:501 931023VAR-1
( Previous data )

ARCHIVE   LOCAL FORECASTS   CLIMATE AVERAGES